When you browse on this site, cookies collect data to enhance your experience and personalize the content and advertising you see.
Visit our Privacy Policy to learn more. By continuing to use the site, you agree to this use of cookies and data.

Stündliche Wetter Kopenhagen

Heute, 3 Juli, Freitag

Zeit Temperatur Niederschläge Wind Luftdruck Luftfeuchtigkeit
00:00 +13°C° 0 mm 3 m/S 757 mmHg 72%
01:00 +13°C° 0 mm 3 m/S 757 mmHg 72%
02:00 +13°C° 0 mm 3 m/S 757 mmHg 71%
03:00 +13°C° 0 mm 3 m/S 757 mmHg 70%
04:00 +13°C° 0 mm 3 m/S 757 mmHg 69%
05:00 +13°C° 0 mm 3 m/S 757 mmHg 67%
06:00 +14°C° 0 mm 3 m/S 758 mmHg 66%
07:00 +14°C° 0 mm 3 m/S 758 mmHg 64%
08:00 +15°C° 0 mm 4 m/S 758 mmHg 62%
09:00 +15°C° 0 mm 4 m/S 758 mmHg 60%
10:00 +17°C° 0 mm 4 m/S 758 mmHg 58%
11:00 +17°C° 0 mm 4 m/S 758 mmHg 59%
12:00 +17°C° 0 mm 5 m/S 758 mmHg 59%
13:00 +17°C° 0 mm 5 m/S 758 mmHg 59%
14:00 +17°C° 0.1 mm 5 m/S 758 mmHg 63%
15:00 +17°C° 0.1 mm 5 m/S 758 mmHg 67%
16:00 +17°C° 0.1 mm 5 m/S 758 mmHg 70%
17:00 +17°C° 0.3 mm 5 m/S 758 mmHg 74%
18:00 +16°C° 0.3 mm 5 m/S 758 mmHg 77%
19:00 +16°C° 0.3 mm 5 m/S 757 mmHg 80%
20:00 +16°C° 0 mm 5 m/S 757 mmHg 80%
21:00 +16°C° 0 mm 5 m/S 757 mmHg 80%
22:00 +15°C° 0 mm 6 m/S 757 mmHg 80%
23:00 +15°C° 0 mm 7 m/S 757 mmHg 80%

Morgen, 4 Juli, Samstag

Zeit Temperatur Niederschläge Wind Luftdruck Luftfeuchtigkeit
00:00 +15°C° 0 mm 8 m/S 757 mmHg 79%
01:00 +15°C° 0 mm 8 m/S 756 mmHg 79%
02:00 +15°C° 0 mm 9 m/S 756 mmHg 80%
03:00 +15°C° 0 mm 9 m/S 755 mmHg 81%
04:00 +16°C° 0 mm 10 m/S 755 mmHg 82%
05:00 +16°C° 0.2 mm 10 m/S 755 mmHg 85%
06:00 +16°C° 0.2 mm 10 m/S 755 mmHg 87%
07:00 +16°C° 0.2 mm 10 m/S 755 mmHg 89%
08:00 +16°C° 0.2 mm 9 m/S 755 mmHg 88%
09:00 +17°C° 0.2 mm 9 m/S 755 mmHg 86%
10:00 +17°C° 0.2 mm 9 m/S 756 mmHg 84%
11:00 +18°C° 0.3 mm 8 m/S 756 mmHg 83%
12:00 +18°C° 0.3 mm 8 m/S 756 mmHg 82%
13:00 +18°C° 0.3 mm 8 m/S 756 mmHg 81%
14:00 +18°C° 0.3 mm 8 m/S 756 mmHg 83%
15:00 +18°C° 0.3 mm 8 m/S 756 mmHg 84%
16:00 +18°C° 0.3 mm 8 m/S 756 mmHg 86%
17:00 +17°C° 0.3 mm 8 m/S 756 mmHg 88%
18:00 +17°C° 0.3 mm 7 m/S 755 mmHg 90%
19:00 +17°C° 0.3 mm 7 m/S 755 mmHg 92%
20:00 +16°C° 1.2 mm 8 m/S 754 mmHg 92%
21:00 +16°C° 1.2 mm 8 m/S 754 mmHg 93%
22:00 +16°C° 1.2 mm 9 m/S 754 mmHg 93%
23:00 +16°C° 0.9 mm 9 m/S 753 mmHg 93%

übermorgen, 5 Juli, Sonntag

Zeit Temperatur Niederschläge Wind Luftdruck Luftfeuchtigkeit
00:00 +17°C° 0.9 mm 9 m/S 752 mmHg 93%
01:00 +17°C° 0.9 mm 9 m/S 752 mmHg 93%
02:00 +17°C° 0.4 mm 9 m/S 752 mmHg 92%
03:00 +17°C° 0.4 mm 9 m/S 752 mmHg 92%
04:00 +17°C° 0.4 mm 8 m/S 752 mmHg 92%
05:00 +17°C° 0.1 mm 8 m/S 752 mmHg 90%
06:00 +17°C° 0.1 mm 8 m/S 752 mmHg 87%
07:00 +17°C° 0.1 mm 8 m/S 752 mmHg 85%
08:00 +18°C° 0.2 mm 8 m/S 752 mmHg 80%
09:00 +20°C° 0.2 mm 8 m/S 752 mmHg 76%
10:00 +20°C° 0.2 mm 8 m/S 752 mmHg 71%
11:00 +20°C° 0.2 mm 8 m/S 752 mmHg 73%
12:00 +20°C° 0.2 mm 8 m/S 751 mmHg 76%
13:00 +20°C° 0.2 mm 8 m/S 751 mmHg 78%
14:00 +18°C° 0.5 mm 9 m/S 750 mmHg 81%
15:00 +18°C° 0.5 mm 10 m/S 749 mmHg 84%
16:00 +18°C° 0.5 mm 11 m/S 749 mmHg 88%
17:00 +17°C° 0.6 mm 12 m/S 748 mmHg 85%
18:00 +17°C° 0.6 mm 12 m/S 748 mmHg 82%
19:00 +17°C° 0.6 mm 12 m/S 748 mmHg 79%
20:00 +15°C° 0 mm 12 m/S 748 mmHg 76%
21:00 +14°C° 0 mm 12 m/S 748 mmHg 73%
22:00 +14°C° 0 mm 12 m/S 748 mmHg 69%
23:00 +14°C° 0 mm 12 m/S 749 mmHg 68%

6 Juli, Montag

Zeit Temperatur Niederschläge Wind Luftdruck Luftfeuchtigkeit
00:00 +14°C° 0 mm 12 m/S 749 mmHg 66%
01:00 +14°C° 0 mm 12 m/S 749 mmHg 64%
02:00 +13°C° 0 mm 11 m/S 749 mmHg 66%
03:00 +13°C° 0 mm 10 m/S 750 mmHg 67%
04:00 +13°C° 0 mm 9 m/S 750 mmHg 69%
05:00 +13°C° 0.1 mm 10 m/S 750 mmHg 69%
06:00 +14°C° 0.1 mm 10 m/S 750 mmHg 69%
07:00 +14°C° 0.1 mm 10 m/S 750 mmHg 69%
08:00 +16°C° 0.3 mm 10 m/S 750 mmHg 68%
09:00 +16°C° 0.3 mm 10 m/S 750 mmHg 68%
10:00 +16°C° 0.3 mm 11 m/S 750 mmHg 67%
11:00 +17°C° 0.3 mm 11 m/S 750 mmHg 65%
12:00 +17°C° 0.3 mm 11 m/S 750 mmHg 64%
13:00 +17°C° 0.3 mm 11 m/S 751 mmHg 62%
14:00 +17°C° 0.4 mm 10 m/S 751 mmHg 63%
15:00 +17°C° 0.4 mm 10 m/S 751 mmHg 64%
16:00 +17°C° 0.4 mm 10 m/S 752 mmHg 65%
17:00 +16°C° 0.3 mm 10 m/S 752 mmHg 68%
18:00 +15°C° 0.3 mm 9 m/S 753 mmHg 71%
19:00 +15°C° 0.3 mm 9 m/S 753 mmHg 73%
20:00 +13°C° 0 mm 9 m/S 754 mmHg 72%
21:00 +12°C° 0 mm 9 m/S 754 mmHg 70%
22:00 +12°C° 0 mm 9 m/S 755 mmHg 68%
23:00 +12°C° 0 mm 9 m/S 755 mmHg 67%

7 Juli, Dienstag

Zeit Temperatur Niederschläge Wind Luftdruck Luftfeuchtigkeit
00:00 +11°C° 0 mm 9 m/S 756 mmHg 67%
01:00 +11°C° 0 mm 9 m/S 756 mmHg 66%
02:00 +11°C° 0.1 mm 9 m/S 756 mmHg 66%
03:00 +11°C° 0.1 mm 9 m/S 756 mmHg 66%
04:00 +11°C° 0.1 mm 10 m/S 757 mmHg 66%
05:00 +12°C° 0.1 mm 10 m/S 757 mmHg 66%
06:00 +12°C° 0.1 mm 10 m/S 757 mmHg 66%
07:00 +12°C° 0.1 mm 10 m/S 758 mmHg 66%
08:00 +13°C° 0.1 mm 10 m/S 758 mmHg 64%
09:00 +14°C° 0.1 mm 10 m/S 759 mmHg 62%
10:00 +15°C° 0.1 mm 9 m/S 759 mmHg 59%
11:00 +14°C° 0.3 mm 10 m/S 759 mmHg 62%
12:00 +14°C° 0.3 mm 10 m/S 759 mmHg 65%
13:00 +16°C° 0.3 mm 11 m/S 759 mmHg 68%
14:00 +14°C° 0.3 mm 11 m/S 759 mmHg 67%
15:00 +14°C° 0.3 mm 10 m/S 759 mmHg 65%
16:00 +14°C° 0.3 mm 10 m/S 759 mmHg 64%
17:00 +14°C° 0.4 mm 10 m/S 759 mmHg 66%
18:00 +13°C° 0.4 mm 9 m/S 759 mmHg 67%
19:00 +13°C° 0.4 mm 8 m/S 759 mmHg 69%
20:00 +12°C° 0.2 mm 8 m/S 759 mmHg 71%
21:00 +12°C° 0.2 mm 9 m/S 759 mmHg 73%
22:00 +11°C° 0.2 mm 9 m/S 759 mmHg 76%
23:00 +12°C° 0.1 mm 9 m/S 759 mmHg 76%

8 Juli, Mittwoch

Zeit Temperatur Niederschläge Wind Luftdruck Luftfeuchtigkeit
00:00 +12°C° 0.1 mm 9 m/S 760 mmHg 76%
01:00 +12°C° 0.1 mm 9 m/S 760 mmHg 77%
02:00 +12°C° 0.1 mm 8 m/S 760 mmHg 78%
03:00 +12°C° 0.1 mm 8 m/S 760 mmHg 78%
04:00 +12°C° 0.1 mm 8 m/S 760 mmHg 79%
05:00 +12°C° 0.1 mm 8 m/S 761 mmHg 78%
06:00 +14°C° 0.1 mm 7 m/S 761 mmHg 77%
07:00 +15°C° 0.1 mm 7 m/S 761 mmHg 75%
08:00 +15°C° 0 mm 7 m/S 762 mmHg 73%
09:00 +16°C° 0.1 mm 7 m/S 762 mmHg 70%
10:00 +16°C° 0.1 mm 7 m/S 762 mmHg 68%
11:00 +17°C° 0 mm 7 m/S 762 mmHg 65%
12:00 +17°C° 0 mm 6 m/S 762 mmHg 62%
13:00 +17°C° 0 mm 6 m/S 762 mmHg 59%
14:00 +17°C° 0 mm 6 m/S 762 mmHg 58%
15:00 +17°C° 0 mm 6 m/S 762 mmHg 58%
16:00 +17°C° 0 mm 6 m/S 762 mmHg 58%
17:00 +17°C° 0 mm 6 m/S 762 mmHg 62%
18:00 +16°C° 0 mm 5 m/S 762 mmHg 65%
19:00 +16°C° 0 mm 5 m/S 762 mmHg 69%
20:00 +15°C° 0 mm 5 m/S 762 mmHg 72%
21:00 +15°C° 0 mm 5 m/S 762 mmHg 74%
22:00 +14°C° 0 mm 5 m/S 762 mmHg 77%
23:00 +14°C° 0 mm 5 m/S 762 mmHg 78%
Mehr zeigen